User: anonymous   Login
Location: Columbia
(38.9520°N, 92.3340°W)
Time: 05:18:08
(UTC-06:00)
Language:

SL-08 RB Rocket - Orbit

View from above orbital plane
View from above orbital plane
View from above satellite
View from above satellite

Ground track
Ground track

The orbit data is extracted from the following two-line orbital elements,

1 26387U 00033D   17057.27302133  .00000127  00000-0  30393-4 0  9995
2 26387  97.9847 124.3260 0025759 332.2364  68.7400 14.68242425891608
Epoch (UTC): 26 February 2017 06:33:09
Eccentricity: 0.0025759
inclination: 97.9847°
perigee height: 648 km
apogee height: 685 km
right ascension of ascending node: 124.3260°
argument of perigee: 332.2364°
revolutions per day: 14.68242425
mean anomaly at epoch: 68.7400°
orbit number at epoch: 89160

The dashed part of the orbit path shows where the satellite is in the earth's shadow,  

DLR